FW6353 Weather Reports


time (UTC)temp
F
wind
direction
speed
knots
gust
knots
rain 1hr
in
rain 24hr
in
rain mn
in
humidity
%
barometer
mb
20260505001515 41 55 7.0 8.7 0.00 0.20 0.20 29 1010.5
20260505000534 40 52 7.8 8.7 0.00 0.20 0.20 29 1009.9
20260504235515 39 50 7.8 8.7 0.00 0.20 0.20 28 1009.4
20260504234515 38 47 7.8 8.7 0.00 0.20 0.20 28 1008.9
20260504233515 38 44 7.8 9.6 0.00 0.20 0.20 27 1008.4
20260504231515 36 39 7.8 9.6 0.00 0.20 0.20 27 1007.4
20260504230515 36 37 7.8 9.6 0.00 0.20 0.20 26 1007.0
20260504225515 35 35 7.8 9.6 0.00 0.20 0.20 26 1006.5
20260504224515 35 32 7.8 9.6 0.00 0.20 0.20 25 1006.1
20260504223515 34 30 7.8 9.6 0.00 0.20 0.20 25 1005.7
20260504222515 34 28 7.8 9.6 0.00 0.20 0.20 25 1005.3
20260504221515 33 26 7.8 9.6 0.00 0.20 0.20 24 1004.9
20260504220515 33 24 7.8 9.6 0.00 0.20 0.20 24 1004.5
20260504215515 32 22 7.8 9.6 0.00 0.20 0.20 24 1004.1
20260504214515 32 20 7.8 9.6 0.00 0.20 0.20 23 1003.8
20260504213515 31 18 7.8 9.6 0.00 0.20 0.20 23 1003.4
20260504212515 31 17 8.7 9.6 0.00 0.20 0.20 23 1003.1
20260504211515 31 15 8.7 10.4 0.00 0.20 0.20 23 1002.8
20260504210515 31 14 8.7 10.4 0.00 0.20 0.20 22 1002.5
20260504205515 30 12 8.7 10.4 0.00 0.20 0.20 22 1002.2
20260504204515 30 11 8.7 10.4 0.00 0.20 0.20 22 1002.0
20260504203515 30 9 8.7 10.4 0.00 0.20 0.20 22 1001.7
20260504202515 30 8 8.7 10.4 0.00 0.20 0.20 21 1001.5
20260504201534 30 7 8.7 10.4 0.00 0.20 0.20 21 1001.3
20260504200515 30 6 8.7 10.4 0.00 0.20 0.20 21 1001.1
20260504195515 30 5 8.7 10.4 0.00 0.20 0.20 21 1000.9
20260504194515 30 4 8.7 10.4 0.00 0.20 0.20 21 1000.7
20260504193515 30 3 8.7 10.4 0.00 0.20 0.20 21 1000.6
20260504192515 30 3 8.7 10.4 0.00 0.20 0.20 20 1000.4
20260504191515 30 2 8.7 10.4 0.00 0.20 0.20 20 1000.3
20260504190515 31 1 8.7 10.4 0.00 0.20 0.20 20 1000.2
20260504190039 31 1 8.7 10.4 0.00 0.20 0.20 20 1000.1
20260504183015 32 0 8.7 10.4 0.00 0.20 0.20 20 1000.0
20260504182015 32 0 8.7 10.4 0.00 0.20 0.20 20 1000.0
20260504181015 33 0 8.7 10.4 0.00 0.20 0.20 20 999.9
20260504180015 33 0 8.7 10.4 0.00 0.20 0.20 20 999.9
20260504175015 33 0 8.7 10.4 0.00 0.20 0.20 20 1000.0
20260504174015 34 0 8.7 10.4 0.00 0.20 0.20 20 1000.0
20260504173015 34 1 8.7 10.4 0.00 0.20 0.20 20 1000.0
20260504172015 35 1 8.7 10.4 0.00 0.20 0.20 20 1000.1
20260504171015 36 1 8.7 10.4 0.00 0.20 0.20 20 1000.2
20260504151015 44 13 8.7 10.4 0.00 0.20 0.20 22 1002.4
20260504141034 50 23 7.8 9.6 0.00 0.20 0.20 24 1004.4
20260504004515 43 296 1.7 1.7 0.00 0.00 0.00 69 1056.3
20260504003515 42 299 1.7 1.7 0.00 0.00 0.00 70 1056.9
20260504002515 41 302 1.7 1.7 0.00 0.00 0.00 70 1057.4